FW4251 Weather Reports


Display with metric or nautical units.
time (UTC)temp
F
wind
direction
speed
MPH
gust
MPH
rain 1hr
in
rain 24hr
in
rain mn
in
humidity
%
barometer
mb
20260906181047 77 53 3.0 10.0 0.00 0.00 0.00 55 1015.7
20260906180546 76 37 3.0 8.0 0.00 0.00 0.00 54 1015.8
20260906180105 76 67 2.0 13.0 0.00 0.00 0.00 56 1015.8
20260906175545 76 59 3.0 8.0 0.00 0.00 0.00 55 1015.7
20260906175045 76 355 2.0 11.0 0.00 0.00 0.00 55 1015.7
20260906174555 76 5 3.0 11.0 0.00 0.00 0.00 56 1015.7
20260906174044 76 53 3.0 8.0 0.00 0.00 0.00 57 1015.7
20260906173543 76 63 3.0 11.0 0.00 0.00 0.00 59 1015.7
20260906173043 75 335 4.0 11.0 0.00 0.00 0.00 57 1015.8
20260906172543 76 60 1.0 6.0 0.00 0.00 0.00 58 1015.8
20260906172043 75 76 1.0 8.0 0.00 0.00 0.00 59 1016.0
20260906171542 76 42 2.0 8.0 0.00 0.00 0.00 59 1015.8
20260906171041 75 107 2.0 10.0 0.00 0.00 0.00 59 1015.8
20260906170541 76 46 2.0 6.0 0.00 0.00 0.00 59 1015.8
20260906170041 76 46 2.0 7.0 0.00 0.00 0.00 60 1015.9
20260906165540 76 84 2.0 6.0 0.00 0.00 0.00 60 1015.9
20260906165039 75 76 2.0 7.0 0.00 0.00 0.00 62 1016.0
20260906164539 75 40 1.0 9.0 0.00 0.00 0.00 63 1015.8
20260906164037 75 36 2.0 9.0 0.00 0.00 0.00 62 1015.9
20260906163535 75 12 1.0 6.0 0.00 0.00 0.00 61 1016.0
20260906163035 75 59 3.0 7.0 0.00 0.00 0.00 62 1016.2
20260906162535 75 40 3.0 7.0 0.00 0.00 0.00 63 1016.1
20260906162036 75 34 2.0 5.0 0.00 0.00 0.00 63 1016.1
20260906161534 74 55 2.0 8.0 0.00 0.00 0.00 63 1016.1
20260906161034 74 79 2.0 9.0 0.00 0.00 0.00 64 1016.1
20260906160533 74 51 1.0 11.0 0.00 0.00 0.00 64 1016.1
20260906160034 74 65 3.0 11.0 0.00 0.00 0.00 66 1016.1
20260906155530 73 36 1.0 8.0 0.00 0.00 0.00 67 1016.1
20260906155030 73 25 3.0 8.0 0.00 0.00 0.00 66 1016.1
20260906154532 73 355 2.0 9.0 0.00 0.00 0.00 68 1016.1
20260906154026 73 338 2.0 9.0 0.00 0.00 0.00 70 1016.0
20260906153525 72 355 3.0 8.0 0.00 0.00 0.00 67 1016.0
20260906153034 72 52 3.0 8.0 0.00 0.00 0.00 69 1016.0
20260906152524 72 64 1.0 9.0 0.00 0.00 0.00 70 1016.1
20260906152024 72 96 2.0 9.0 0.00 0.00 0.00 69 1016.1
20260906151528 72 46 2.0 8.0 0.00 0.00 0.00 71 1016.2
20260906151023 72 88 2.0 12.0 0.00 0.00 0.00 70 1016.1
20260906150524 72 90 3.0 12.0 0.00 0.00 0.00 72 1016.2
20260906150025 71 72 2.0 6.0 0.00 0.00 0.00 71 1016.2
20260906145519 71 97 2.0 6.0 0.00 0.00 0.00 72 1016.1
20260906145019 71 11 2.0 7.0 0.00 0.00 0.00 72 1016.1
20260906144520 70 18 2.0 8.0 0.00 0.00 0.00 74 1016.0
20260906144016 70 90 3.0 8.0 0.00 0.00 0.00 75 1016.0
20260906143514 69 69 2.0 8.0 0.00 0.00 0.00 74 1015.9
20260906143018 69 344 2.0 8.0 0.00 0.00 0.00 75 1015.8
20260906142512 69 346 4.0 8.0 0.00 0.00 0.00 75 1015.7
20260906142011 68 20 2.0 8.0 0.00 0.00 0.00 75 1015.7
20260906141510 68 329 2.0 9.0 0.00 0.00 0.00 77 1015.7
20260906141009 68 44 3.0 9.0 0.00 0.00 0.00 78 1015.7
20260906140508 67 355 2.0 10.0 0.00 0.00 0.00 79 1015.7
20260906140009 67 92 3.0 10.0 0.00 0.00 0.00 80 1015.7
20260906135507 67 62 2.0 9.0 0.00 0.00 0.00 80 1015.6
20260906135006 67 88 2.0 9.0 0.00 0.00 0.00 81 1015.6
20260906134508 66 72 2.0 8.0 0.00 0.00 0.00 81 1015.5
20260906134005 66 43 1.0 9.0 0.00 0.00 0.00 81 1015.5
20260906133503 66 76 3.0 9.0 0.00 0.00 0.00 81 1015.5
20260906133012 66 22 1.0 9.0 0.00 0.00 0.00 81 1015.5
20260906132502 66 56 2.0 9.0 0.00 0.00 0.00 82 1015.5
20260906132002 66 115 2.0 8.0 0.00 0.00 0.00 82 1015.6
20260906131502 66 355 2.0 8.0 0.00 0.00 0.00 83 1015.5
20260906131001 65 360 2.0 8.0 0.00 0.00 0.00 84 1015.5
20260906130501 65 9 2.0 9.0 0.00 0.00 0.00 84 1015.4
20260906130003 65 51 2.0 6.0 0.00 0.00 0.00 85 1015.5
20260906125501 64 5 2.0 7.0 0.00 0.00 0.00 86 1015.5
20260906125000 64 59 2.0 7.0 0.00 0.00 0.00 87 1015.6
20260906124502 63 91 1.0 11.0 0.00 0.00 0.00 87 1015.5
20260906124103 63 30 3.0 11.0 0.00 0.00 0.00 88 1015.6
20260906123559 63 42 3.0 8.0 0.00 0.00 0.00 89 1015.6
20260906123101 63 59 2.0 8.0 0.00 0.00 0.00 90 1015.4
20260906122600 62 41 2.0 6.0 0.00 0.00 0.00 90 1015.4
20260906122057 62 55 2.0 7.0 0.00 0.00 0.00 91 1015.4
20260906121558 62 39 1.0 5.0 0.00 0.00 0.00 91 1015.4
20260906121057 62 64 1.0 5.0 0.00 0.00 0.00 91 1015.5
20260906120556 62 36 0.0 4.0 0.00 0.00 0.00 92 1015.4
20260906120059 61 29 0.0 3.0 0.00 0.00 0.00 92 1015.3
20260906115555 61 29 0.0 3.0 0.00 0.00 0.00 92 1015.3
20260906115054 61 14 0.0 2.0 0.00 0.00 0.00 91 1015.2
20260906114554 61 9 0.0 1.0 0.00 0.00 0.00 91 1015.2
20260906114054 61 5 0.0 0.0 0.00 0.00 0.00 91 1015.1
20260906113552 60 5 0.0 0.0 0.00 0.00 0.00 91 1015.1
20260906113052 60 5 0.0 0.0 0.00 0.00 0.00 90 1015.0
20260906112551 60 5 0.0 0.0 0.00 0.00 0.00 90 1015.0
20260906112051 60 5 0.0 0.0 0.00 0.00 0.00 90 1014.9
20260906111551 60 5 0.0 0.0 0.00 0.00 0.00 89 1014.9
20260906111050 60 5 0.0 0.0 0.00 0.00 0.00 89 1014.8
20260906110548 60 5 0.0 0.0 0.00 0.00 0.00 89 1014.8
20260906110054 60 5 0.0 0.0 0.00 0.00 0.00 89 1014.7
20260906105549 60 5 0.0 0.0 0.00 0.00 0.00 89 1014.6
20260906105047 60 5 0.0 0.0 0.00 0.00 0.00 89 1014.5
20260906104545 60 5 0.0 0.0 0.00 0.00 0.00 89 1014.3
20260906104045 60 5 0.0 0.0 0.00 0.00 0.00 89 1014.3
20260906103544 60 5 0.0 0.0 0.00 0.00 0.00 89 1014.2
20260906103100 60 5 0.0 0.0 0.00 0.00 0.00 89 1014.2
20260906102547 60 5 0.0 0.0 0.00 0.00 0.00 89 1014.3
20260906102043 60 5 0.0 0.0 0.00 0.00 0.00 88 1014.2
20260906101543 60 5 0.0 0.0 0.00 0.00 0.00 88 1014.2
20260906101041 60 5 0.0 0.0 0.00 0.00 0.00 88 1014.2
20260906100541 60 5 0.0 0.0 0.00 0.00 0.00 88 1014.1
20260906100041 60 5 0.0 0.0 0.00 0.00 0.00 88 1014.0
20260906095540 60 5 0.0 0.0 0.00 0.00 0.00 88 1014.1
20260906095040 60 5 0.0 0.0 0.00 0.00 0.00 88 1014.0
20260906094540 60 5 0.0 0.0 0.00 0.00 0.00 88 1014.0
20260906094039 60 5 0.0 1.0 0.00 0.00 0.00 88 1014.0
20260906093539 60 5 0.0 3.0 0.00 0.00 0.00 88 1014.0
20260906093040 60 5 0.0 0.0 0.00 0.00 0.00 87 1014.0
20260906092540 60 5 0.0 0.0 0.00 0.00 0.00 87 1013.9
20260906092037 61 5 0.0 0.0 0.00 0.00 0.00 87 1013.7
20260906091535 61 5 0.0 1.0 0.00 0.00 0.00 87 1013.8
20260906091035 61 5 0.0 2.0 0.00 0.00 0.00 87 1013.7
20260906090534 61 5 0.0 5.0 0.00 0.00 0.00 87 1013.7
20260906090051 61 10 0.0 0.0 0.00 0.00 0.00 86 1013.6
20260906085533 61 10 0.0 0.0 0.00 0.00 0.00 86 1013.7
20260906085032 61 10 0.0 0.0 0.00 0.00 0.00 86 1013.7
20260906084532 61 10 0.0 0.0 0.00 0.00 0.00 85 1013.6
20260906084032 62 10 0.0 0.0 0.00 0.00 0.00 85 1013.6
20260906083531 62 10 0.0 2.0 0.00 0.00 0.00 85 1013.7
20260906083033 62 10 0.0 2.0 0.00 0.00 0.00 85 1013.5
20260906082528 62 10 0.0 0.0 0.00 0.00 0.00 85 1013.4
20260906082031 62 10 0.0 0.0 0.00 0.00 0.00 85 1013.2
20260906081529 62 10 0.0 0.0 0.00 0.00 0.00 84 1013.3
20260906081027 62 10 0.0 1.0 0.00 0.00 0.00 84 1013.2
20260906080526 63 10 0.0 1.0 0.00 0.00 0.00 83 1013.4
20260906080024 63 10 0.0 0.0 0.00 0.00 0.00 83 1013.4
20260906075524 63 10 0.0 0.0 0.00 0.00 0.00 83 1013.4
20260906075023 63 10 0.0 0.0 0.00 0.00 0.00 83 1013.3
20260906074523 63 10 0.0 0.0 0.00 0.00 0.00 82 1013.3
20260906074023 64 10 0.0 0.0 0.00 0.00 0.00 82 1013.3
20260906073521 64 10 0.0 0.0 0.00 0.00 0.00 82 1013.3
20260906073020 64 10 0.0 0.0 0.00 0.00 0.00 82 1013.2
20260906072519 64 10 0.0 0.0 0.00 0.00 0.00 81 1013.2
20260906072024 64 10 0.0 0.0 0.00 0.00 0.00 82 1013.2
20260906071518 64 10 0.0 0.0 0.00 0.00 0.00 81 1013.2
20260906071018 65 10 0.0 0.0 0.00 0.00 0.00 81 1013.3
20260906070518 65 10 0.0 0.0 0.00 0.00 0.00 81 1013.1
20260906070018 65 10 0.0 0.0 0.00 0.00 0.00 81 1013.2
20260906065517 65 10 0.0 3.0 0.00 0.00 0.00 81 1013.1
20260906065018 65 10 0.0 3.0 0.00 0.00 0.00 81 1013.1
20260906064516 65 10 0.0 1.0 0.00 0.00 0.00 81 1013.0
20260906064016 65 10 0.0 5.0 0.00 0.00 0.00 81 1013.0
20260906063515 65 10 2.0 5.0 0.00 0.00 0.00 81 1013.0
20260906063021 65 11 0.0 4.0 0.00 0.00 0.00 81 1012.9
20260906062515 65 59 0.0 2.0 0.00 0.00 0.00 80 1012.9
20260906062015 65 59 0.0 2.0 0.00 0.00 0.00 80 1013.0
20260906061514 65 59 0.0 2.0 0.00 0.00 0.00 80 1013.0
20260906061013 65 59 0.0 2.0 0.00 0.00 0.00 80 1013.0
20260906060513 65 59 0.0 3.0 0.00 0.00 0.00 80 1013.1
20260906060014 65 59 0.0 3.0 0.00 0.00 0.00 80 1013.1
20260906055517 65 59 0.0 1.0 0.00 0.00 0.00 80 1013.2
20260906055013 65 59 0.0 2.0 0.00 0.00 0.00 80 1013.2
20260906054512 65 60 0.0 3.0 0.00 0.00 0.00 80 1013.3
20260906054012 65 60 0.0 2.0 0.00 0.00 0.00 79 1013.4
20260906053511 65 60 0.0 3.0 0.00 0.00 0.00 80 1013.4
20260906053012 65 60 0.0 3.0 0.00 0.00 0.00 80 1013.4
20260906052513 65 60 0.0 0.0 0.00 0.00 0.00 80 1013.4
20260906052013 65 60 0.0 3.0 0.00 0.00 0.00 79 1013.4
20260906051511 65 60 0.0 3.0 0.00 0.00 0.00 79 1013.4
20260906051011 65 60 0.0 3.0 0.00 0.00 0.00 79 1013.3
20260906050510 66 60 0.0 4.0 0.00 0.00 0.00 79 1013.4
20260906050010 66 60 0.0 4.0 0.00 0.00 0.00 79 1013.4
20260906045611 66 60 1.0 4.0 0.00 0.00 0.00 79 1013.5
20260906045012 66 59 0.0 3.0 0.00 0.00 0.00 79 1013.3
20260906044509 66 59 0.0 3.0 0.00 0.00 0.00 79 1013.3
20260906044011 66 59 1.0 3.0 0.00 0.00 0.00 79 1013.3
20260906043510 66 59 0.0 1.0 0.00 0.00 0.00 79 1013.3
20260906043007 66 59 0.0 3.0 0.00 0.00 0.00 78 1013.1
20260906042506 66 59 0.0 5.0 0.00 0.00 0.00 79 1013.1
20260906042005 65 59 1.0 5.0 0.00 0.00 0.00 79 1013.1
20260906041507 65 55 0.0 7.0 0.00 0.00 0.00 79 1013.1
20260906041007 65 78 2.0 7.0 0.00 0.00 0.00 79 1013.0
20260906040504 65 23 1.0 5.0 0.00 0.00 0.00 80 1013.1
20260906040009 65 56 0.0 5.0 0.00 0.00 0.00 81 1013.1
20260906035503 65 56 0.0 5.0 0.00 0.00 0.00 81 1013.2
20260906035004 65 40 0.0 2.0 0.00 0.00 0.00 82 1013.0
20260906034502 65 40 0.0 3.0 0.00 0.00 0.00 82 1013.1
20260906034003 65 40 0.0 6.0 0.00 0.00 0.00 83 1013.1
20260906033502 64 40 0.0 6.0 0.00 0.00 0.00 83 1013.1
20260906033002 64 21 1.0 3.0 0.00 0.00 0.00 83 1013.0
20260906032502 64 9 0.0 2.0 0.00 0.00 0.00 83 1013.1
20260906032001 64 9 0.0 3.0 0.00 0.00 0.00 83 1013.0
20260906031500 64 9 0.0 3.0 0.00 0.00 0.00 83 1012.9
20260906031002 64 5 0.0 0.0 0.00 0.00 0.00 82 1012.9
20260906030502 64 5 0.0 0.0 0.00 0.00 0.00 82 1012.9
20260906030001 64 5 0.0 0.0 0.00 0.00 0.00 82 1012.9
20260906025500 64 5 0.0 0.0 0.00 0.00 0.00 82 1012.9
20260906025101 64 5 0.0 0.0 0.00 0.00 0.00 81 1012.9
20260906024601 64 5 0.0 0.0 0.00 0.00 0.00 81 1012.9
20260906024100 64 5 0.0 0.0 0.00 0.00 0.00 81 1012.9
20260906023600 65 5 0.0 0.0 0.00 0.00 0.00 80 1012.9
20260906023100 65 5 0.0 0.0 0.00 0.00 0.00 80 1012.9
20260906022559 65 5 0.0 0.0 0.00 0.00 0.00 80 1013.0
20260906022100 65 5 0.0 0.0 0.00 0.00 0.00 80 1012.9
20260906021603 65 5 0.0 0.0 0.00 0.00 0.00 79 1012.8
20260906021059 65 5 0.0 0.0 0.00 0.00 0.00 79 1012.9
20260906020600 65 5 0.0 0.0 0.00 0.00 0.00 78 1012.8
20260906020106 65 5 0.0 0.0 0.00 0.00 0.00 78 1012.8
20260906015558 66 5 0.0 0.0 0.00 0.00 0.00 78 1012.8
20260906015058 66 5 0.0 0.0 0.00 0.00 0.00 77 1012.8
20260906014558 66 5 0.0 0.0 0.00 0.00 0.00 77 1012.9
20260906014101 66 5 0.0 0.0 0.00 0.00 0.00 77 1012.9
20260906013556 66 5 0.0 0.0 0.00 0.00 0.00 77 1012.7
20260906013105 67 5 0.0 0.0 0.00 0.00 0.00 76 1012.6
20260906012554 67 5 0.0 0.0 0.00 0.00 0.00 75 1012.6
20260906012055 67 5 0.0 0.0 0.00 0.00 0.00 75 1012.7
20260906011555 67 5 0.0 0.0 0.00 0.00 0.00 75 1012.7
20260906011054 68 5 0.0 0.0 0.00 0.00 0.00 74 1012.6
20260906010554 68 5 0.0 0.0 0.00 0.00 0.00 74 1012.6
20260906010055 68 5 0.0 2.0 0.00 0.00 0.00 74 1012.6
20260906005553 68 5 0.0 2.0 0.00 0.00 0.00 74 1012.5
20260906005054 68 5 0.0 3.0 0.00 0.00 0.00 73 1012.4
20260906004555 69 5 1.0 3.0 0.00 0.00 0.00 72 1012.5
20260906004053 69 9 0.0 1.0 0.00 0.00 0.00 72 1012.4
20260906003551 69 9 0.0 4.0 0.00 0.00 0.00 72 1012.3
20260906003051 69 9 1.0 4.0 0.00 0.00 0.00 71 1012.3
20260906002550 70 5 0.0 2.0 0.00 0.00 0.00 71 1012.1
20260906002052 70 5 0.0 2.0 0.00 0.00 0.00 70 1012.1
20260906001550 70 5 0.0 0.0 0.00 0.00 0.00 70 1012.0
20260906001054 71 5 0.0 0.0 0.00 0.00 0.00 70 1012.0
20260906000550 71 5 0.0 0.0 0.00 0.00 0.00 70 1012.1
20260905235549 71 5 0.0 1.0 0.00 0.00 0.00 70 1012.0
20260905235049 71 5 0.0 3.0 0.00 0.00 0.00 69 1012.0
20260905234601 71 5 0.0 6.0 0.00 0.00 0.00 68 1012.0
20260905234048 71 304 2.0 6.0 0.00 0.00 0.00 67 1012.0
20260905233548 71 355 2.0 4.0 0.00 0.00 0.00 67 1011.8
20260905233048 72 15 1.0 3.0 0.00 0.00 0.00 68 1011.8
20260905232546 72 15 0.0 3.0 0.00 0.00 0.00 68 1011.8
20260905232047 72 15 0.0 4.0 0.00 0.00 0.00 68 1011.8
20260905231547 72 15 1.0 5.0 0.00 0.00 0.00 68 1011.7
20260905231046 73 15 1.0 5.0 0.00 0.00 0.00 68 1011.9
20260905230546 73 53 0.0 2.0 0.00 0.00 0.00 68 1011.8
20260905230046 73 53 0.0 2.0 0.00 0.00 0.00 67 1011.7
20260905225547 73 53 0.0 0.0 0.00 0.00 0.00 67 1011.5
20260905225046 73 53 0.0 4.0 0.00 0.00 0.00 67 1011.6
20260905224546 73 53 1.0 6.0 0.00 0.00 0.00 66 1011.6
20260905224045 74 53 2.0 6.0 0.00 0.00 0.00 65 1011.6
20260905223545 74 5 0.0 3.0 0.00 0.00 0.00 66 1011.7
20260905223049 74 5 0.0 3.0 0.00 0.00 0.00 66 1011.6
20260905222545 74 5 1.0 5.0 0.00 0.00 0.00 65 1011.7
20260905222044 75 344 1.0 6.0 0.00 0.00 0.00 65 1011.6
20260905221548 75 348 1.0 6.0 0.00 0.00 0.00 64 1011.5
20260905221049 75 18 1.0 9.0 0.00 0.00 0.00 64 1011.5
20260905220544 76 27 2.0 6.0 0.00 0.00 0.00 63 1011.5
20260905220044 76 30 1.0 4.0 0.00 0.00 0.00 65 1011.4
20260905215544 76 26 1.0 4.0 0.00 0.00 0.00 63 1011.7
20260905215043 76 36 0.0 4.0 0.00 0.00 0.00 64 1011.5
20260905214544 76 36 2.0 5.0 0.00 0.00 0.00 64 1011.4
20260905214044 76 9 2.0 9.0 0.00 0.00 0.00 62 1011.4
20260905213542 77 327 2.0 9.0 0.00 0.00 0.00 62 1011.3
20260905213043 77 340 2.0 9.0 0.00 0.00 0.00 62 1011.3
20260905212543 78 60 1.0 8.0 0.00 0.00 0.00 63 1011.2
20260905212043 78 34 2.0 8.0 0.00 0.00 0.00 63 1011.1
20260905211542 77 360 2.0 4.0 0.00 0.00 0.00 64 1010.9
20260905211042 77 90 0.0 8.0 0.00 0.00 0.00 65 1010.9
20260905210541 77 96 1.0 8.0 0.00 0.00 0.00 65 1011.0
20260905210054 76 17 0.0 3.0 0.00 0.00 0.00 65 1011.0
20260905205546 76 13 0.0 4.0 0.00 0.00 0.00 64 1011.1
20260905205045 77 46 2.0 7.0 0.00 0.00 0.00 64 1010.9
20260905204543 77 314 1.0 7.0 0.00 0.00 0.00 63 1010.8
20260905204041 77 329 1.0 6.0 0.00 0.00 0.00 62 1010.7
20260905203544 78 34 1.0 9.0 0.00 0.00 0.00 62 1010.7
20260905203057 77 38 1.0 9.0 0.00 0.00 0.00 61 1010.7
20260905202539 77 32 1.0 8.0 0.00 0.00 0.00 61 1010.7
20260905202043 77 46 1.0 6.0 0.00 0.00 0.00 63 1010.6
20260905201540 77 93 1.0 6.0 0.00 0.00 0.00 62 1010.7
20260905201039 78 44 0.0 6.0 0.00 0.00 0.00 61 1010.7
20260905200539 78 46 2.0 6.0 0.00 0.00 0.00 62 1010.6
20260905200041 78 14 2.0 5.0 0.00 0.00 0.00 59 1010.7
20260905195539 78 70 0.0 5.0 0.00 0.00 0.00 60 1010.7
20260905195039 79 59 0.0 6.0 0.00 0.00 0.00 59 1010.8
20260905194539 79 59 1.0 6.0 0.00 0.00 0.00 59 1010.8
20260905194040 80 340 1.0 5.0 0.00 0.00 0.00 58 1010.8
20260905193538 80 74 1.0 5.0 0.00 0.00 0.00 57 1010.7
20260905193038 81 50 1.0 5.0 0.00 0.00 0.00 57 1010.7
20260905192538 81 53 2.0 5.0 0.00 0.00 0.00 58 1010.7
20260905192039 81 45 1.0 6.0 0.00 0.00 0.00 58 1010.7
20260905191541 80 76 2.0 6.0 0.00 0.00 0.00 60 1010.7
20260905191037 80 89 3.0 11.0 0.00 0.00 0.00 60 1010.6
20260905190536 80 85 6.0 11.0 0.00 0.00 0.00 58 1010.7
20260905190036 80 105 4.0 9.0 0.00 0.00 0.00 58 1010.6
20260905185536 81 351 1.0 11.0 0.00 0.00 0.00 59 1010.7
20260905185035 81 14 1.0 6.0 0.00 0.00 0.00 59 1010.7
20260905184543 81 33 1.0 6.0 0.00 0.00 0.00 61 1010.8
20260905184035 81 65 1.0 10.0 0.00 0.00 0.00 60 1010.7
20260905183534 81 78 3.0 10.0 0.00 0.00 0.00 60 1010.7
20260905183034 80 80 4.0 8.0 0.00 0.00 0.00 60 1010.7
20260905182534 80 81 1.0 8.0 0.00 0.00 0.00 59 1010.9
20260905182034 80 65 2.0 4.0 0.00 0.00 0.00 58 1010.7
20260905181533 81 57 1.0 4.0 0.00 0.00 0.00 60 1010.9